レモン彗星

C/2016 X1 ( Lemmon )

English version
Home page
Updated on February 13, 2018

---------------------------------------------------------------------

・ プロフィール

発見日 2016年12月8日
発見光度 20.1等
発見者 G. J. Leonard (Mount Lemmon)

・ 写真集

・ 軌道要素

Epoch 2019 Apr. 27.0 TT = JDT 2458600.5
T 2019 Apr. 29.83486 TT                                 MPCW
q   7.5636796            (2000.0)            P               Q
z  +0.0005647      Peri.  224.56707     -0.44350964     -0.78469991
 +/-0.0000078      Node   256.42672     +0.89502120     -0.36226584
e   0.9957288      Incl.   26.45583     +0.04728895     -0.50300051
From 55 observations 2016 Nov. 26-2018 Jan. 19, mean residual 0".4.

・ 光度変化

        m1 = 6.0 + 5 logΔ + 10.0 log r

---------------------------------------------------------------------

軌道要素はM.P.E.C. 2018-B155に掲載されたものです。
光度グラフはComet for Windowsで作成したものです。

---------------------------------------------------------------------

Copyright(C) Seiichi Yoshida (comet@aerith.net). All rights reserved.